EW1090 Weather Reports


Display with metric or nautical units.
time (UTC)temp
F
wind
direction
speed
MPH
gust
MPH
rain 1hr
in
rain 24hr
in
rain mn
in
humidity
%
barometer
mb
20260506001317 78 194 1.0 7.0 0.00 0.00 0.00 69 1011.3
20260506000813 78 225 0.0 7.0 0.00 0.00 0.00 69 1011.3
20260506000309 79 144 1.0 6.0 0.00 0.00 0.00 69 1011.3
20260505235821 79 250 1.0 6.0 0.00 0.00 0.00 68 1011.3
20260505235317 79 175 3.0 6.0 0.00 0.00 0.00 68 1011.3
20260505234814 79 134 2.0 7.0 0.00 0.00 0.00 67 1011.3
20260505234310 79 227 1.0 7.0 0.00 0.00 0.00 67 1011.3
20260505233824 80 245 2.0 7.0 0.00 0.00 0.00 66 1011.3
20260505233320 80 208 0.0 4.0 0.00 0.00 0.00 67 1011.3
20260505232815 80 107 1.0 4.0 0.00 0.00 0.00 66 1011.3
20260505232311 80 190 1.0 6.0 0.00 0.00 0.00 66 1011.3
20260505231827 81 193 1.0 6.0 0.00 0.00 0.00 65 1011.4
20260505231323 81 90 2.0 6.0 0.00 0.00 0.00 64 1011.4
20260505230819 81 181 1.0 7.0 0.00 0.00 0.00 64 1011.5
20260505230315 82 179 2.0 9.0 0.00 0.00 0.00 64 1011.4
20260505225811 81 140 1.0 9.0 0.00 0.00 0.00 65 1011.4
20260505225308 81 169 4.0 10.0 0.00 0.00 0.00 64 1011.5
20260505224824 81 271 3.0 8.0 0.00 0.00 0.00 64 1011.4
20260505224406 81 94 1.0 9.0 0.00 0.00 0.00 64 1011.4
20260505223821 81 161 3.0 9.0 0.00 0.00 0.00 63 1011.3
20260505223337 82 167 3.0 7.0 0.00 0.00 0.00 63 1011.3
20260505222812 82 117 0.0 10.0 0.00 0.00 0.00 63 1011.3
20260505222310 82 119 3.0 12.0 0.00 0.00 0.00 63 1011.1
20260505221826 82 295 4.0 10.0 0.00 0.00 0.00 63 1011.2
20260505221323 82 201 2.0 14.0 0.00 0.00 0.00 63 1011.2
20260505220841 82 238 3.0 14.0 0.00 0.00 0.00 62 1011.1
20260505220315 82 117 4.0 9.0 0.00 0.00 0.00 62 1011.2
20260505215811 82 122 3.0 7.0 0.00 0.00 0.00 62 1011.2
20260505215307 82 254 2.0 10.0 0.00 0.00 0.00 63 1011.2
20260505214825 81 148 2.0 15.0 0.00 0.00 0.00 64 1011.2
20260505214321 81 224 6.0 15.0 0.00 0.00 0.00 63 1011.4
20260505213818 81 207 3.0 13.0 0.00 0.00 0.00 63 1011.4
20260505213314 82 225 6.0 14.0 0.00 0.00 0.00 62 1011.3
20260505212808 82 110 4.0 12.0 0.00 0.00 0.00 63 1011.3
20260505212324 81 198 5.0 12.0 0.00 0.00 0.00 63 1011.4
20260505211819 82 221 5.0 10.0 0.00 0.00 0.00 63 1011.4
20260505211335 82 202 4.0 13.0 0.00 0.00 0.00 62 1011.6
20260505210830 83 209 4.0 13.0 0.00 0.00 0.00 60 1011.6
20260505210321 84 208 2.0 9.0 0.00 0.00 0.00 60 1011.7
20260505205818 84 191 4.0 10.0 0.00 0.00 0.00 59 1011.7
20260505205315 84 131 3.0 11.0 0.00 0.00 0.00 60 1011.7
20260505204831 83 193 3.0 14.0 0.00 0.00 0.00 60 1011.7
20260505204317 83 227 3.0 11.0 0.00 0.00 0.00 60 1011.7
20260505203833 83 81 2.0 13.0 0.00 0.00 0.00 60 1011.7
20260505203329 84 70 5.0 13.0 0.00 0.00 0.00 59 1011.5
20260505202825 84 240 4.0 10.0 0.00 0.00 0.00 59 1011.5
20260505202322 84 198 2.0 9.0 0.00 0.00 0.00 59 1011.5
20260505201818 84 209 1.0 13.0 0.00 0.00 0.00 60 1011.7
20260505201315 83 167 3.0 13.0 0.00 0.00 0.00 58 1011.7
20260505200810 84 71 3.0 10.0 0.00 0.00 0.00 58 1011.7
20260505200328 83 223 4.0 10.0 0.00 0.00 0.00 57 1011.7
20260505195931 84 254 1.0 11.0 0.00 0.00 0.00 59 1011.8
20260505195346 84 232 1.0 8.0 0.00 0.00 0.00 56 1011.7
20260505194908 85 200 3.0 9.0 0.00 0.00 0.00 55 1011.7
20260505194323 85 212 1.0 11.0 0.00 0.00 0.00 56 1011.7
20260505193836 85 117 4.0 11.0 0.00 0.00 0.00 55 1011.7
20260505193310 85 347 3.0 10.0 0.00 0.00 0.00 54 1011.7
20260505192853 85 149 2.0 10.0 0.00 0.00 0.00 55 1011.7
20260505192348 85 84 3.0 7.0 0.00 0.00 0.00 57 1011.9
20260505191841 84 120 1.0 9.0 0.00 0.00 0.00 56 1012.0
20260505191317 84 199 3.0 11.0 0.00 0.00 0.00 56 1012.0
20260505190813 84 219 5.0 11.0 0.00 0.00 0.00 55 1012.2
20260505190308 84 219 3.0 10.0 0.00 0.00 0.00 56 1012.3
20260505185822 84 207 3.0 10.0 0.00 0.00 0.00 56 1012.3
20260505185319 84 170 2.0 13.0 0.00 0.00 0.00 56 1012.4
20260505184813 84 92 3.0 13.0 0.00 0.00 0.00 55 1012.5
20260505184309 84 174 3.0 9.0 0.00 0.00 0.00 55 1012.5
20260505183825 84 227 5.0 9.0 0.00 0.00 0.00 55 1012.5
20260505183320 84 98 2.0 10.0 0.00 0.00 0.00 57 1012.6
20260505182816 83 81 2.0 10.0 0.00 0.00 0.00 57 1012.7
20260505182332 83 172 3.0 8.0 0.00 0.00 0.00 57 1012.5
20260505181808 83 174 2.0 11.0 0.00 0.00 0.00 58 1012.6
20260505181326 82 340 4.0 11.0 0.00 0.00 0.00 57 1012.8
20260505180820 83 247 3.0 12.0 0.00 0.00 0.00 56 1012.8
20260505180336 83 192 5.0 12.0 0.00 0.00 0.00 56 1012.8
20260505175830 83 187 2.0 8.0 0.00 0.00 0.00 57 1012.8
20260505175345 83 176 2.0 11.0 0.00 0.00 0.00 58 1012.8
20260505174820 82 207 2.0 11.0 0.00 0.00 0.00 60 1012.7
20260505174316 82 161 4.0 9.0 0.00 0.00 0.00 58 1012.7
20260505173811 81 184 2.0 13.0 0.00 0.00 0.00 59 1012.8
20260505173350 81 173 3.0 13.0 0.00 0.00 0.00 58 1012.9
20260505172826 81 265 3.0 10.0 0.00 0.00 0.00 59 1012.8
20260505172321 81 144 3.0 12.0 0.00 0.00 0.00 59 1012.8
20260505171818 81 171 2.0 10.0 0.00 0.00 0.00 60 1012.9
20260505171314 81 203 3.0 10.0 0.00 0.00 0.00 58 1013.0
20260505170811 81 239 4.0 10.0 0.00 0.00 0.00 59 1013.0
20260505170327 81 188 1.0 10.0 0.00 0.00 0.00 59 1012.9
20260505165822 80 219 5.0 10.0 0.00 0.00 0.00 59 1012.9
20260505165317 80 155 3.0 10.0 0.00 0.00 0.00 60 1012.9
20260505164834 80 203 5.0 10.0 0.00 0.00 0.00 59 1012.9
20260505164308 80 207 2.0 10.0 0.00 0.00 0.00 60 1012.9
20260505163824 80 204 4.0 10.0 0.00 0.00 0.00 58 1012.9
20260505163320 80 88 2.0 10.0 0.00 0.00 0.00 59 1012.9
20260505162815 80 214 4.0 10.0 0.00 0.00 0.00 58 1012.9
20260505162331 81 202 5.0 10.0 0.00 0.00 0.00 58 1012.9
20260505161827 80 202 0.0 9.0 0.00 0.00 0.00 60 1012.9
20260505161316 80 117 3.0 11.0 0.00 0.00 0.00 60 1013.0
20260505160825 80 182 4.0 13.0 0.00 0.00 0.00 58 1012.8
20260505153316 79 167 3.0 10.0 0.00 0.00 0.00 62 1013.2
20260505152832 79 194 3.0 10.0 0.00 0.00 0.00 61 1013.2
20260505152328 79 217 1.0 10.0 0.00 0.00 0.00 61 1013.2
20260505151825 79 207 2.0 10.0 0.00 0.00 0.00 60 1013.1
20260505151342 79 303 0.0 10.0 0.00 0.00 0.00 61 1013.1
20260505150817 79 180 1.0 8.0 0.00 0.00 0.00 61 1013.0
20260505150312 78 238 1.0 8.0 0.00 0.00 0.00 63 1013.1
20260505140411 76 213 1.0 9.0 0.00 0.00 0.00 69 1013.1
20260505124813 71 170 2.0 5.0 0.00 0.00 0.00 75 1012.7
20260505124311 70 121 0.0 0.0 0.00 0.00 0.00 76 1012.6
20260505123826 70 121 0.0 0.0 0.00 0.00 0.00 77 1012.5
20260505123321 69 87 0.0 0.0 0.00 0.00 0.00 79 1012.4
20260505122811 68 144 0.0 0.0 0.00 0.00 0.00 80 1012.3
20260505122328 68 143 0.0 0.0 0.00 0.00 0.00 81 1012.3
20260505121824 67 143 0.0 0.0 0.00 0.00 0.00 81 1012.3
20260505121319 67 143 0.0 0.0 0.00 0.00 0.00 82 1012.2
20260505120816 66 132 0.0 0.0 0.00 0.00 0.00 82 1012.1
20260505120333 66 132 0.0 0.0 0.00 0.00 0.00 83 1012.2
20260505115837 65 132 0.0 0.0 0.00 0.00 0.00 84 1012.1
20260505115311 65 132 0.0 0.0 0.00 0.00 0.00 84 1012.2
20260505114852 65 132 0.0 0.0 0.00 0.00 0.00 84 1012.2
20260505114327 64 132 0.0 0.0 0.00 0.00 0.00 84 1012.3
20260505113823 64 132 0.0 0.0 0.00 0.00 0.00 85 1012.2
20260505113319 64 132 0.0 0.0 0.00 0.00 0.00 85 1012.3
20260505112816 64 132 0.0 0.0 0.00 0.00 0.00 85 1012.3
20260505112313 64 132 0.0 0.0 0.00 0.00 0.00 85 1012.1
20260505111828 63 132 0.0 0.0 0.00 0.00 0.00 85 1012.1
20260505111324 63 132 0.0 0.0 0.00 0.00 0.00 85 1012.1
20260505110819 63 132 0.0 0.0 0.00 0.00 0.00 84 1012.2
20260505110314 63 132 0.0 0.0 0.00 0.00 0.00 84 1012.2
20260505101827 64 132 0.0 0.0 0.00 0.00 0.00 82 1012.4
20260505101322 64 132 0.0 0.0 0.00 0.00 0.00 82 1012.4
20260505100819 64 132 0.0 0.0 0.00 0.00 0.00 82 1012.4
20260505100316 64 132 0.0 0.0 0.00 0.00 0.00 82 1012.4
20260505095832 64 132 0.0 0.0 0.00 0.00 0.00 82 1012.4
20260505095328 64 132 0.0 0.0 0.00 0.00 0.00 81 1012.4
20260505094840 64 132 0.0 0.0 0.00 0.00 0.00 81 1012.3
20260505094314 64 132 0.0 0.0 0.00 0.00 0.00 81 1012.3
20260505093810 64 132 0.0 0.0 0.00 0.00 0.00 81 1012.3
20260505093326 64 132 0.0 0.0 0.00 0.00 0.00 81 1012.3
20260505092822 64 132 0.0 0.0 0.00 0.00 0.00 81 1012.2
20260505092320 64 132 0.0 0.0 0.00 0.00 0.00 82 1012.1
20260505091817 63 132 0.0 0.0 0.00 0.00 0.00 81 1012.1
20260505091333 63 132 0.0 0.0 0.00 0.00 0.00 82 1012.2
20260505090828 63 132 0.0 0.0 0.00 0.00 0.00 82 1012.1
20260505090324 63 132 0.0 0.0 0.00 0.00 0.00 81 1012.2
20260505085820 63 132 0.0 0.0 0.00 0.00 0.00 81 1012.2
20260505085316 63 132 0.0 0.0 0.00 0.00 0.00 81 1012.1
20260505084832 63 132 0.0 0.0 0.00 0.00 0.00 80 1012.2
20260505084353 63 132 0.0 0.0 0.00 0.00 0.00 80 1012.2
20260505083849 63 132 0.0 0.0 0.00 0.00 0.00 80 1012.2
20260505083345 63 132 0.0 0.0 0.00 0.00 0.00 79 1012.3
20260505082822 63 132 0.0 0.0 0.00 0.00 0.00 79 1012.2
20260505082317 63 132 0.0 0.0 0.00 0.00 0.00 79 1012.3
20260505081834 63 132 0.0 0.0 0.00 0.00 0.00 79 1012.3
20260505081309 63 132 0.0 0.0 0.00 0.00 0.00 79 1012.3
20260505080826 63 132 0.0 0.0 0.00 0.00 0.00 79 1012.3
20260505080323 63 132 0.0 0.0 0.00 0.00 0.00 79 1012.3
20260505075818 63 132 0.0 0.0 0.00 0.00 0.00 79 1012.3
20260505075313 63 132 0.0 0.0 0.00 0.00 0.00 79 1012.3
20260505074810 63 132 0.0 0.0 0.00 0.00 0.00 79 1012.3
20260505074327 63 132 0.0 0.0 0.00 0.00 0.00 79 1012.4
20260505073824 63 132 0.0 0.0 0.00 0.00 0.00 78 1012.5
20260505073341 63 132 0.0 0.0 0.00 0.00 0.00 78 1012.5
20260505072815 63 132 0.0 0.0 0.00 0.00 0.00 77 1012.5
20260505072312 63 132 0.0 0.0 0.00 0.00 0.00 77 1012.4
20260505071824 63 132 0.0 0.0 0.00 0.00 0.00 76 1012.5
20260505071320 63 132 0.0 0.0 0.00 0.00 0.00 76 1012.6
20260505070816 63 132 0.0 0.0 0.00 0.00 0.00 76 1012.7
20260505070312 63 132 0.0 0.0 0.00 0.00 0.00 76 1012.7
20260505065809 63 132 0.0 0.0 0.00 0.00 0.00 76 1012.9
20260505065325 63 132 0.0 0.0 0.00 0.00 0.00 75 1013.0
20260505064822 63 132 0.0 0.0 0.00 0.00 0.00 75 1013.0
20260505064319 63 132 0.0 0.0 0.00 0.00 0.00 75 1013.1
20260505063814 63 132 0.0 0.0 0.00 0.00 0.00 75 1013.2
20260505063309 64 132 0.0 0.0 0.00 0.00 0.00 74 1013.3
20260505062825 64 132 0.0 0.0 0.00 0.00 0.00 74 1013.4
20260505062321 64 132 0.0 0.0 0.00 0.00 0.00 74 1013.3
20260505061818 64 132 0.0 0.0 0.00 0.00 0.00 73 1013.3
20260505061333 64 132 0.0 0.0 0.00 0.00 0.00 73 1013.3
20260505060850 64 132 0.0 0.0 0.00 0.00 0.00 73 1013.3
20260505060326 64 132 0.0 0.0 0.00 0.00 0.00 72 1013.3
20260505055823 64 132 0.0 0.0 0.00 0.00 0.00 71 1013.4
20260505055318 65 132 0.0 0.0 0.00 0.00 0.00 71 1013.4
20260505054834 65 132 0.0 0.0 0.00 0.00 0.00 71 1013.3
20260505054328 65 132 0.0 0.0 0.00 0.00 0.00 69 1013.4
20260505053844 65 132 0.0 0.0 0.00 0.00 0.00 69 1013.5
20260505053319 66 132 0.0 0.0 0.00 0.00 0.00 68 1013.5
20260505052816 66 132 0.0 0.0 0.00 0.00 0.00 68 1013.3
20260505052333 66 132 0.0 0.0 0.00 0.00 0.00 68 1013.2
20260505051829 66 132 0.0 0.0 0.00 0.00 0.00 68 1013.1
20260505051343 66 132 0.0 0.0 0.00 0.00 0.00 67 1013.1
20260505050838 66 132 0.0 0.0 0.00 0.00 0.00 67 1013.2
20260505050312 66 132 0.0 0.0 0.00 0.00 0.00 67 1013.2
20260505041339 67 132 0.0 0.0 0.00 0.00 0.00 64 1013.8
20260505040815 67 132 0.0 0.0 0.00 0.00 0.00 64 1013.9
20260505040310 67 132 0.0 0.0 0.00 0.00 0.00 63 1013.9
20260505035826 68 132 0.0 0.0 0.00 0.00 0.00 63 1014.0
20260505035324 68 132 0.0 0.0 0.00 0.00 0.00 63 1013.9
20260505034820 68 132 0.0 0.0 0.00 0.00 0.00 62 1013.9
20260505034316 68 135 0.0 0.0 0.00 0.00 0.00 62 1013.8
20260505033831 68 135 0.0 0.0 0.00 0.00 0.00 62 1013.9
20260505033326 68 135 0.0 1.0 0.00 0.00 0.00 62 1013.8
20260505032823 68 135 0.0 1.0 0.00 0.00 0.00 61 1013.8
20260505032317 68 134 0.0 0.0 0.00 0.00 0.00 61 1013.6
20260505031834 68 134 0.0 0.0 0.00 0.00 0.00 61 1013.6
20260505031350 68 134 0.0 0.0 0.00 0.00 0.00 61 1013.7
20260505030825 68 132 0.0 1.0 0.00 0.00 0.00 61 1013.9
20260505030322 68 132 0.0 1.0 0.00 0.00 0.00 60 1013.9
20260505025816 68 138 0.0 1.0 0.00 0.00 0.00 60 1013.8
20260505025332 69 138 0.0 1.0 0.00 0.00 0.00 60 1013.8
20260505024828 69 157 0.0 0.0 0.00 0.00 0.00 60 1013.8
20260505024323 69 211 0.0 2.0 0.00 0.00 0.00 59 1013.8
20260505023819 69 141 0.0 2.0 0.00 0.00 0.00 59 1013.7
20260505023309 69 183 0.0 2.0 0.00 0.00 0.00 59 1013.7
20260505022828 69 89 0.0 2.0 0.00 0.00 0.00 59 1013.7
20260505022322 69 148 0.0 3.0 0.00 0.00 0.00 58 1013.8
20260505021819 69 148 0.0 3.0 0.00 0.00 0.00 58 1013.7
20260505021334 70 177 0.0 5.0 0.00 0.00 0.00 58 1013.7
20260505020844 70 91 0.0 5.0 0.00 0.00 0.00 58 1013.7
20260505020319 70 126 0.0 1.0 0.00 0.00 0.00 57 1013.7
20260505015815 70 113 0.0 1.0 0.00 0.00 0.00 57 1013.6
20260505015311 70 113 0.0 1.0 0.00 0.00 0.00 57 1013.6
20260505014827 70 113 0.0 1.0 0.00 0.00 0.00 56 1013.5
20260505014322 70 162 0.0 0.0 0.00 0.00 0.00 56 1013.4
20260505013817 70 162 0.0 0.0 0.00 0.00 0.00 55 1013.3
20260505013333 70 162 0.0 0.0 0.00 0.00 0.00 55 1013.3
20260505012849 71 246 0.0 0.0 0.00 0.00 0.00 55 1013.4
20260505012325 71 218 0.0 0.0 0.00 0.00 0.00 55 1013.5
20260505011320 71 153 0.0 0.0 0.00 0.00 0.00 54 1013.3
20260505010816 71 213 0.0 2.0 0.00 0.00 0.00 54 1013.2
20260505010311 71 213 0.0 2.0 0.00 0.00 0.00 54 1013.4
20260505005827 71 179 0.0 2.0 0.00 0.00 0.00 54 1013.3
20260505005324 72 194 0.0 2.0 0.00 0.00 0.00 53 1013.5
20260505004907 72 84 0.0 2.0 0.00 0.00 0.00 53 1013.7
20260505004322 72 121 0.0 2.0 0.00 0.00 0.00 52 1013.7
20260505003839 72 147 0.0 3.0 0.00 0.00 0.00 52 1013.6
20260505003313 72 179 0.0 3.0 0.00 0.00 0.00 52 1013.5
20260505002830 72 159 0.0 7.0 0.00 0.00 0.00 51 1013.6
20260505002347 73 242 0.0 6.0 0.00 0.00 0.00 51 1013.7
20260505001820 73 246 0.0 6.0 0.00 0.00 0.00 51 1013.8